Location: Nickerson Gardens
(33.9320°N, 118.2484°W)
Time: 23:55:22
(UTC+00:00)

Envisat - Pass Details

Date: 29 January 2021
Orbit: 764 x 766 km, 98.1° (Epoch: 06 March)

Event Time Altitude Azimuth Distance (km) Brightness Sun altitude
Rises 13:48:50 0° 8° (N) 3,236 6.2 -13.3°
Reaches altitude 10° 13:51:09 10° 5° (N) 2,306 5.4 -12.8°
Maximum altitude 13:56:10 64° 285° (WNW) 842 3.0 -11.8°
Drops below altitude 10° 14:01:10 10° 204° (SSW) 2,291 5.4 -10.8°
Sets 14:03:28 0° 202° (SSW) 3,213 6.2 -10.4°
